When you browse on this site, cookies collect data to enhance your experience and personalize the content and advertising you see.
Visit our Privacy Policy to learn more. By continuing to use the site, you agree to this use of cookies and data.
  • In Romania
  • List of Countries
  • For 7 days
  • Water Temperature
  • Satellite Maps
  • Weather Map
  • Weather Widgets
  • user-avatar
    Login

    Hourly Weather Dolina

    Today, 20 January, Sunday

    Time Temperature Precipitation Wind Pressure Humidity
    00:00 +4°C° 0 mm 1 mps 735 mmHg 40%
    01:00 +4°C° 0 mm 1 mps 735 mmHg 41%
    02:00 +4°C° 0 mm 1 mps 735 mmHg 42%
    03:00 +5°C° 0 mm 1 mps 735 mmHg 42%
    04:00 +5°C° 0 mm 1 mps 736 mmHg 46%
    05:00 +4°C° 0 mm 1 mps 736 mmHg 51%
    06:00 +2°C° 0 mm 0 mps 736 mmHg 55%
    07:00 +4°C° 0.1 mm 1 mps 736 mmHg 58%
    08:00 +4°C° 0.1 mm 1 mps 736 mmHg 61%
    09:00 +4°C° 0.1 mm 1 mps 737 mmHg 65%
    10:00 +4°C° 0.1 mm 1 mps 737 mmHg 67%
    11:00 +5°C° 0.1 mm 1 mps 737 mmHg 69%
    12:00 +5°C° 0.1 mm 1 mps 737 mmHg 71%
    13:00 +5°C° 0 mm 1 mps 736 mmHg 73%
    14:00 +5°C° 0 mm 1 mps 736 mmHg 75%
    15:00 +5°C° 0 mm 1 mps 736 mmHg 77%
    16:00 +5°C° 0 mm 1 mps 737 mmHg 82%
    17:00 +3°C° 0 mm 2 mps 737 mmHg 87%
    18:00 +2°C° 0 mm 2 mps 737 mmHg 92%
    19:00 +2°C° 0 mm 2 mps 737 mmHg 92%
    20:00 +1°C° 0 mm 2 mps 737 mmHg 92%
    21:00 +1°C° 0 mm 2 mps 737 mmHg 92%
    22:00 +1°C° 0 mm 2 mps 737 mmHg 92%
    23:00 +1°C° 0 mm 2 mps 736 mmHg 92%

    Tomorrow, 21 January, Monday

    Time Temperature Precipitation Wind Pressure Humidity
    00:00 +1°C° 0 mm 2 mps 736 mmHg 91%
    01:00 +1°C° 0 mm 2 mps 736 mmHg 91%
    02:00 +1°C° 0 mm 2 mps 736 mmHg 90%
    03:00 +1°C° 0 mm 2 mps 736 mmHg 90%
    04:00 +1°C° 0 mm 2 mps 736 mmHg 88%
    05:00 +1°C° 0 mm 2 mps 735 mmHg 87%
    06:00 +1°C° 0 mm 2 mps 735 mmHg 86%
    07:00 +1°C° 0 mm 2 mps 735 mmHg 83%
    08:00 +1°C° 0 mm 3 mps 734 mmHg 80%
    09:00 +1°C° 0 mm 3 mps 734 mmHg 77%
    10:00 +2°C° 0 mm 3 mps 733 mmHg 73%
    11:00 +3°C° 0 mm 3 mps 733 mmHg 68%
    12:00 +4°C° 0 mm 3 mps 732 mmHg 64%
    13:00 +4°C° 0 mm 3 mps 732 mmHg 64%
    14:00 +4°C° 0 mm 3 mps 731 mmHg 65%
    15:00 +5°C° 0 mm 3 mps 731 mmHg 65%
    16:00 +5°C° 0 mm 2 mps 731 mmHg 69%
    17:00 +4°C° 0 mm 2 mps 731 mmHg 74%
    18:00 +3°C° 0 mm 2 mps 731 mmHg 78%
    19:00 +4°C° 0 mm 1 mps 731 mmHg 75%
    20:00 +4°C° 0 mm 1 mps 731 mmHg 72%
    21:00 +4°C° 0 mm 1 mps 731 mmHg 69%
    22:00 +4°C° 0 mm 1 mps 730 mmHg 66%
    23:00 +4°C° 0 mm 1 mps 730 mmHg 62%

    Day after tomorrow, 22 January, Tuesday

    Time Temperature Precipitation Wind Pressure Humidity
    00:00 +5°C° 0 mm 1 mps 730 mmHg 58%
    01:00 +3°C° 0 mm 2 mps 730 mmHg 58%
    02:00 +3°C° 0 mm 2 mps 730 mmHg 58%
    03:00 +3°C° 0 mm 2 mps 731 mmHg 58%
    04:00 +3°C° 0.1 mm 2 mps 731 mmHg 63%
    05:00 +3°C° 0.1 mm 2 mps 731 mmHg 69%
    06:00 +2°C° 0.1 mm 2 mps 731 mmHg 74%
    07:00 +3°C° 0.3 mm 2 mps 732 mmHg 78%
    08:00 +3°C° 0.3 mm 2 mps 733 mmHg 82%
    09:00 +3°C° 0.3 mm 2 mps 733 mmHg 86%
    10:00 +3°C° 0.4 mm 2 mps 733 mmHg 87%
    11:00 +2°C° 0.4 mm 2 mps 734 mmHg 89%
    12:00 +1°C° 0.4 mm 3 mps 734 mmHg 90%
    13:00 +2°C° 0.2 mm 2 mps 734 mmHg 91%
    14:00 +1°C° 0.2 mm 2 mps 734 mmHg 91%
    15:00 +1°C° 0.2 mm 2 mps 734 mmHg 92%
    16:00 -1°C° 0.3 mm 2 mps 734 mmHg 93%
    17:00 -1°C° 0.3 mm 2 mps 735 mmHg 94%
    18:00 -2°C° 0.3 mm 2 mps 735 mmHg 95%
    19:00 -2°C° 0.3 mm 2 mps 735 mmHg 95%
    20:00 -2°C° 0.3 mm 2 mps 735 mmHg 95%
    21:00 -3°C° 0.3 mm 2 mps 735 mmHg 95%
    22:00 -4°C° 0.1 mm 3 mps 735 mmHg 95%
    23:00 -4°C° 0.1 mm 3 mps 735 mmHg 96%

    23 January, Wednesday

    Time Temperature Precipitation Wind Pressure Humidity
    00:00 -4°C° 0.1 mm 3 mps 735 mmHg 96%
    01:00 -4°C° 0 mm 3 mps 735 mmHg 95%
    02:00 -4°C° 0 mm 3 mps 735 mmHg 95%
    03:00 -4°C° 0 mm 3 mps 735 mmHg 94%
    04:00 -4°C° 0 mm 3 mps 735 mmHg 94%
    05:00 -4°C° 0 mm 3 mps 735 mmHg 94%
    06:00 -4°C° 0 mm 3 mps 735 mmHg 95%
    07:00 -4°C° 0 mm 3 mps 735 mmHg 94%
    08:00 -4°C° 0 mm 4 mps 735 mmHg 93%
    09:00 -4°C° 0 mm 4 mps 735 mmHg 92%
    10:00 -4°C° 0 mm 4 mps 735 mmHg 90%
    11:00 -3°C° 0 mm 4 mps 735 mmHg 88%
    12:00 -2°C° 0 mm 4 mps 735 mmHg 87%
    13:00 -2°C° 0 mm 4 mps 735 mmHg 87%
    14:00 -2°C° 0 mm 4 mps 734 mmHg 86%
    15:00 -2°C° 0 mm 4 mps 734 mmHg 86%
    16:00 -3°C° 0 mm 4 mps 735 mmHg 88%
    17:00 -4°C° 0 mm 4 mps 735 mmHg 89%
    18:00 -4°C° 0 mm 4 mps 736 mmHg 90%
    19:00 -5°C° 0 mm 4 mps 736 mmHg 90%
    20:00 -5°C° 0 mm 4 mps 736 mmHg 90%
    21:00 -5°C° 0 mm 4 mps 736 mmHg 90%
    22:00 -5°C° 0 mm 4 mps 736 mmHg 90%
    23:00 -5°C° 0 mm 4 mps 736 mmHg 90%

    24 January, Thursday

    Time Temperature Precipitation Wind Pressure Humidity
    00:00 -5°C° 0 mm 4 mps 736 mmHg 90%
    01:00 -5°C° 0 mm 4 mps 736 mmHg 90%
    02:00 -5°C° 0 mm 4 mps 736 mmHg 90%
    03:00 -5°C° 0 mm 4 mps 736 mmHg 90%
    04:00 -4°C° 0 mm 4 mps 736 mmHg 90%
    05:00 -4°C° 0 mm 4 mps 736 mmHg 90%
    06:00 -4°C° 0 mm 4 mps 736 mmHg 90%
    07:00 -4°C° 0 mm 4 mps 736 mmHg 89%
    08:00 -4°C° 0 mm 5 mps 736 mmHg 87%
    09:00 -4°C° 0 mm 5 mps 736 mmHg 86%
    10:00 -2°C° 0 mm 5 mps 735 mmHg 85%
    11:00 -1°C° 0 mm 5 mps 735 mmHg 84%
    12:00 -1°C° 0 mm 5 mps 734 mmHg 82%
    13:00 -1°C° 0 mm 5 mps 734 mmHg 83%
    14:00 0°C° 0 mm 5 mps 734 mmHg 83%
    15:00 0°C° 0 mm 5 mps 733 mmHg 84%
    16:00 -1°C° 0 mm 5 mps 733 mmHg 87%
    17:00 -1°C° 0 mm 5 mps 733 mmHg 90%
    18:00 -2°C° 0 mm 5 mps 733 mmHg 93%
    19:00 -2°C° 0 mm 5 mps 733 mmHg 92%
    20:00 -1°C° 0 mm 5 mps 733 mmHg 92%
    21:00 -1°C° 0 mm 5 mps 732 mmHg 91%
    22:00 -1°C° 0 mm 5 mps 732 mmHg 91%
    23:00 -1°C° 0 mm 5 mps 732 mmHg 91%

    25 January, Friday

    Time Temperature Precipitation Wind Pressure Humidity
    00:00 -1°C° 0 mm 4 mps 731 mmHg 91%
    01:00 -1°C° 0 mm 4 mps 731 mmHg 90%
    02:00 -1°C° 0 mm 4 mps 731 mmHg 90%
    03:00 -1°C° 0 mm 4 mps 730 mmHg 89%
    04:00 -1°C° 0 mm 4 mps 730 mmHg 88%
    05:00 0°C° 0 mm 3 mps 729 mmHg 88%
    06:00 0°C° 0 mm 3 mps 729 mmHg 87%
    07:00 0°C° 0 mm 3 mps 729 mmHg 86%
    08:00 0°C° 0 mm 3 mps 729 mmHg 85%
    09:00 +1°C° 0 mm 3 mps 729 mmHg 84%
    10:00 +1°C° 0 mm 3 mps 729 mmHg 83%
    11:00 +2°C° 0 mm 3 mps 729 mmHg 83%
    12:00 +3°C° 0 mm 2 mps 728 mmHg 82%
    13:00 +3°C° 0 mm 2 mps 728 mmHg 82%
    14:00 +4°C° 0 mm 2 mps 728 mmHg 82%
    15:00 +5°C° 0 mm 1 mps 728 mmHg 82%
    16:00 +4°C° 0 mm 1 mps 728 mmHg 84%
    17:00 +4°C° 0 mm 1 mps 728 mmHg 85%
    18:00 +3°C° 0 mm 1 mps 728 mmHg 86%
    19:00 +3°C° 0 mm 1 mps 728 mmHg 84%
    20:00 +3°C° 0 mm 1 mps 728 mmHg 83%
    21:00 +3°C° 0 mm 1 mps 728 mmHg 81%
    22:00 +3°C° 0 mm 1 mps 727 mmHg 80%
    23:00 +3°C° 0 mm 1 mps 727 mmHg 79%
    Show more